[TLELIST] Archives

 

[list_settings.list_name] Current TLEs

June 12th 2021 PDT

HST 1 20580U 90037B 21162.88772080 .00000469 00000-0 17418-4 0 9990 2 20580 28.4697 101.9047 0002629 8.0185 32.5717 15.09656524510202 ISS (ZARYA) 1 25544U 98067A 21163.38670002 .00000787 00000-0 22470-4 0 9990 2 25544 51.6451 6.4702 0003470 86.5323 333.8876 15.48976006287858 CXO 1 25867U 99040B 21165.46209170 .00000633 00000-0 00000+0 0 9995 2 25867 55.2033 255.4261 8323302 226.4386 359.6740 0.37804846 21563 ____________________________________________________________________ These 2-Line ...Continue Reading

[list_settings.list_name] Current TLEs

June 11th 2021 PDT

HST 1 20580U 90037B 21162.17815934 .00000440 00000-0 15651-4 0 9994 2 20580 28.4696 106.5998 0002599 0.4204 136.2261 15.09655944510314 ISS (ZARYA) 1 25544U 98067A 21162.30956749 .00001369 00000-0 33046-4 0 9994 2 25544 51.6454 11.7958 0003601 83.9354 86.1053 15.48975763287689 CXO 1 25867U 99040B 21162.81834375 .00000551 00000-0 00000-0 0 9992 2 25867 55.2582 255.5262 8319346 226.4114 359.8431 0.37803540 10428 ____________________________________________________________________ These 2-Line ...Continue Reading

[list_settings.list_name] Current TLEs

June 10th 2021 PDT

HST 1 20580U 90037B 21160.97310880 .00000466 00000-0 17203-4 0 9993 2 20580 28.4694 114.5734 0002550 347.2463 67.2548 15.09655320509918 ISS (ZARYA) 1 25544U 98067A 21161.34316587 .00000945 00000-0 25340-4 0 9994 2 25544 51.6455 16.5761 0003655 82.8113 94.7196 15.48970702287530 CXO 1 25867U 99040B 21162.81834375 .00000551 00000-0 00000-0 0 9992 2 25867 55.2582 255.5262 8319346 226.4114 359.8431 0.37803540 10428 ____________________________________________________________________ These 2-Line ...Continue Reading

[list_settings.list_name] Current TLEs

June 9th 2021 PDT

HST 1 20580U 90037B 21160.19132479 .00000441 00000-0 15682-4 0 9995 2 20580 28.4693 119.7462 0002518 338.5170 138.7538 15.09654756510001 ISS (ZARYA) 1 25544U 98067A 21160.11120052 .00000910 00000-0 24711-4 0 9991 2 25544 51.6456 22.6700 0003611 79.3705 63.8310 15.48966853287348 CXO 1 25867U 99040B 21160.17361650 .00000467 00000-0 00000-0 0 9996 2 25867 55.3183 255.6282 8314926 226.3850 359.8583 0.37803506 10413 ____________________________________________________________________ These 2-Line ...Continue Reading

[list_settings.list_name] Current TLEs

June 8th 2021 PDT

HST 1 20580U 90037B 21159.12843656 .00000397 00000-0 13047-4 0 9995 2 20580 28.4692 126.7791 0002479 326.7333 122.5462 15.09653885509848 ISS (ZARYA) 1 25544U 98067A 21159.27382977 .00001336 00000-0 32454-4 0 9998 2 25544 51.6458 26.8125 0003679 76.4264 74.2872 15.48966250287215 CXO 1 25867U 99040B 21160.17361650 .00000467 00000-0 00000-0 0 9996 2 25867 55.3183 255.6282 8314926 226.3850 359.8583 0.37803506 10413 ____________________________________________________________________ These 2-Line ...Continue Reading

[list_settings.list_name] Current TLEs

June 7th 2021 PDT

HST 1 20580U 90037B 21157.41770164 .00000441 00000-0 15707-4 0 9993 2 20580 28.4690 138.0986 0002430 306.9966 186.4285 15.09653273509378 ISS (ZARYA) 1 25544U 98067A 21158.49126275 -.00000540 00000-0 -16239-5 0 9990 2 25544 51.6454 30.6848 0003792 70.9282 33.0947 15.48960384287095 CXO 1 25867U 99040B 21160.17361650 .00000467 00000-0 00000-0 0 9996 2 25867 55.3183 255.6282 8314926 226.3850 359.8583 0.37803506 10413 ____________________________________________________________________ These 2-Line ...Continue Reading

[list_settings.list_name] Current TLEs

June 6th 2021 PDT

HST 1 20580U 90037B 21156.69594659 .00000435 00000-0 15343-4 0 9994 2 20580 28.4689 142.8743 0002419 298.5107 224.5791 15.09652909509269 ISS (ZARYA) 1 25544U 98067A 21157.40657860 .00001627 00000-0 37740-4 0 9993 2 25544 51.6455 36.0491 0003637 69.8214 101.7315 15.48960059286922 CXO 1 25867U 99040B 21157.52868194 .00000424 00000-0 00000-0 0 9999 2 25867 55.3768 255.7242 8309140 226.3682 359.8273 0.37803345 10400 ____________________________________________________________________ These 2-Line ...Continue Reading

[list_settings.list_name] Current TLEs

June 5th 2021 PDT

HST 1 20580U 90037B 21156.14581733 .00000435 00000-0 15341-4 0 9991 2 20580 28.4688 146.5144 0002406 291.7633 115.5842 15.09652635509395 ISS (ZARYA) 1 25544U 98067A 21156.30527927 .00003432 00000-0 70541-4 0 9993 2 25544 51.6455 41.4969 0003508 68.0432 78.3395 15.48957534286754 CXO 1 25867U 99040B 21157.52868194 .00000424 00000-0 00000-0 0 9999 2 25867 55.3768 255.7242 8309140 226.3682 359.8273 0.37803345 10400 ____________________________________________________________________ These 2-Line ...Continue Reading

[list_settings.list_name] Current TLEs

June 4th 2021 PDT

HST 1 20580U 90037B 21154.71276941 .00000444 00000-0 15872-4 0 9993 2 20580 28.4687 155.9969 0002401 274.8449 248.8078 15.09652021508967 ISS (ZARYA) 1 25544U 98067A 21155.40535955 .00001433 00000-0 34222-4 0 9998 2 25544 51.6447 45.9470 0003515 62.2394 102.6737 15.48951571286613 CXO 1 25867U 99040B 21157.52831858 .00000424 00000-0 00000-0 0 9996 2 25867 55.3768 255.7243 8309148 226.3683 359.7773 0.37802922 10392 ____________________________________________________________________ These 2-Line ...Continue Reading

[list_settings.list_name] Current TLEs

June 3rd 2021 PDT

HST 1 20580U 90037B 21153.72108117 .00000443 00000-0 15826-4 0 9990 2 20580 28.4686 162.5589 0002402 263.1467 260.2470 15.09651522509038 ISS (ZARYA) 1 25544U 98067A 21154.36309123 .00003567 00000-0 73001-4 0 9996 2 25544 51.6441 51.1050 0003507 57.2356 51.9327 15.48952752286458 CXO 1 25867U 99040B 21154.88501305 .00000455 00000-0 00000-0 0 9997 2 25867 55.4159 255.7995 8302647 226.3735 359.9405 0.37803999 10395 ____________________________________________________________________ These 2-Line ...Continue Reading
  • This mailing list is a public mailing list - anyone may join or leave, at any time.
  • This mailing list is announce-only.

International Space Station (ISS) / Hubble Space Telescope (HST) / Chandra X-Ray Observatory Orbital Data via EMAIL

Privacy Policy:

Private list